Location: Unspecified
(51.5147°N, 7.4673°E)
Time: 22:37:45
(UTC+01:00)

Vanguard 3 - All Passes

Search period start: 18 February 2026 00:00
Search period end: 28 February 2026 00:00
Orbit: 507 x 3205 km, 33.3° (Epoch: 18 February)

Date Brightness Start Highest point End Pass type
(mag) Time Alt. Az. Time Alt. Az. Time Alt. Az.
18 Feb - 16:53:46 10° SSW 16:58:24 15° S 17:02:00 10° SE daylight
18 Feb - 19:06:05 10° SW 19:08:24 12° SSW 19:10:24 10° S visible
19 Feb - 15:31:41 10° SSW 15:36:53 14° SSE 15:41:00 10° SE daylight
19 Feb - 17:42:32 10° SW 17:47:25 16° S 17:51:09 10° SSE daylight
20 Feb - 14:11:07 10° S 14:15:02 12° SSE 14:18:27 10° SE daylight
20 Feb - 16:19:29 10° SW 16:26:06 18° S 16:30:56 10° SE daylight
20 Feb - 18:32:12 10° SW 18:36:17 15° SSW 18:39:30 10° SSE visible
21 Feb - 14:56:57 10° SSW 15:04:22 18° SSE 15:09:57 10° SE daylight
21 Feb - 17:08:32 10° SW 17:15:12 20° S 17:19:57 10° SE daylight
21 Feb - 19:23:12 10° SW 19:24:56 11° SSW 19:26:30 10° S visible
22 Feb - 13:35:37 10° S 13:42:19 15° SSE 13:47:46 10° SE daylight
22 Feb - 15:45:08 10° SW 15:53:40 22° S 15:59:37 10° SE daylight
22 Feb - 17:58:19 10° SW 18:04:05 18° SSW 18:08:21 10° SSE daylight
23 Feb - 12:19:15 10° SSE 12:20:03 10° SSE 12:20:50 10° SE daylight
23 Feb - 14:22:14 10° SSW 14:31:42 21° SSE 14:38:34 10° ESE daylight
23 Feb - 16:34:21 10° SW 16:42:49 24° S 16:48:35 10° SE daylight
23 Feb - 18:48:56 10° SW 18:52:45 14° SSW 18:55:50 10° S visible
24 Feb - 13:00:31 10° S 13:09:24 17° SSE 13:16:25 10° ESE daylight
24 Feb - 15:10:40 10° SW 15:21:03 25° S 15:28:07 10° SE daylight
24 Feb - 17:24:16 10° WSW 17:31:46 22° SSW 17:37:01 10° SSE daylight
25 Feb - 11:41:39 10° SSE 11:46:57 12° SE 11:51:42 10° SE daylight
25 Feb - 13:47:32 10° SSW 13:58:49 24° SSE 14:06:57 10° ESE daylight
25 Feb - 16:00:02 10° SW 16:10:17 27° S 16:17:05 10° SE daylight
25 Feb - 18:14:50 10° WSW 18:20:28 17° SSW 18:24:42 10° S daylight
26 Feb - 12:25:38 10° SSW 12:36:17 20° SSE 12:44:42 10° ESE daylight
26 Feb - 14:36:07 10° SW 14:48:13 29° S 14:56:27 10° ESE daylight
26 Feb - 16:50:03 10° WSW 16:59:18 25° SSW 17:05:33 10° SE daylight
26 Feb - 19:07:45 10° SW 19:08:50 10° SW 19:09:50 10° SSW visible
27 Feb - 11:06:12 10° S 11:13:41 14° SE 11:20:18 10° ESE daylight
27 Feb - 13:12:53 10° SSW 13:25:44 27° SSE 13:35:05 10° ESE daylight
27 Feb - 15:25:35 10° WSW 15:37:32 30° S 15:45:26 10° SE daylight
27 Feb - 17:40:38 10° WSW 17:48:02 20° SSW 17:53:21 10° SSE daylight
